Weather History for Spirit of St Louis, MO

Change the Weather History Date:

Friday, April 5, 2013

  Actual Average Record
Temperature  
Mean Temperature 49 °F -  
Max Temperature 66 °F 62 °F 81 °F (2001)
Min Temperature 32 °F 39 °F 23 °F (2002)
Degree Days  
Heating Degree Days 16    
Moisture  
Dew Point 31 °F    
Average Humidity 51    
Maximum Humidity 82    
Minimum Humidity 25    
Precipitation  
Precipitation 0.00 in - - ()
Sea Level Pressure  
Sea Level Pressure 30.11 in    
Wind  
Wind Speed 2 mph (ENE)    
Max Wind Speed 9 mph    
Max Gust Speed -    
Visibility 10 miles    
Events      
Averages and records for this station are not official NWS values.
T = Trace of Precipitation, MM = Missing Value Source: NWS Daily Summary

Daily Weather History Graph

Daily Weather History Graph

Search for Another Location

Airport:

Trip Planner

Search our weather history database for the weather conditions in past years. The results will help you decide how hot, cold, wet, or windy it might be!

Date:

Astronomy

Apr. 05, 2013 Rise Set
Actual Time 6:40 AM CDT 7:30 PM CDT
Civil Twilight 6:13 AM CDT 7:57 PM CDT
Nautical Twilight 5:42 AM CDT 8:29 PM CDT
Astronomical Twilight 5:09 AM CDT 9:02 PM CDT
Moon 3:45 AM CDT (4/5) 2:57 PM CDT (4/5)
Length of Visible Light 13h 43m
Length of Day
12h 49m
Waning Crescent, 23% of the Moon is Illuminated
Apr 5
Waning Crescent
Apr 10
New
Apr 18
First Quarter
Apr 25
Full
May 2
Last Quarter

Hourly Weather History & Observations

Time (CDT) Temp. Windchill Dew Point Humidity Pressure Visibility Wind Dir Wind Speed Gust Speed Precip Events Conditions
12:54 AM 36.0 °F - 28.9 °F 76% 30.08 in 10.0 mi Calm Calm - N/A   Clear
1:54 AM 34.0 °F - 26.1 °F 73% 30.09 in 10.0 mi Calm Calm - N/A   Clear
2:54 AM 35.1 °F - 27.0 °F 72% 30.08 in 10.0 mi Calm Calm - N/A   Clear
3:54 AM 34.0 °F 31.0 °F 27.0 °F 75% 30.09 in 10.0 mi WSW 3.5 mph - N/A   Clear
4:54 AM 33.1 °F - 27.0 °F 78% 30.11 in 10.0 mi Calm Calm - N/A   Clear
5:54 AM 33.1 °F 30.0 °F 27.0 °F 78% 30.13 in 10.0 mi WSW 3.5 mph - N/A   Clear
6:54 AM 32.0 °F - 27.0 °F 82% 30.14 in 10.0 mi Calm Calm - N/A   Clear
7:54 AM 37.9 °F - 32.0 °F 79% 30.16 in 10.0 mi Calm Calm - N/A   Clear
8:54 AM 46.9 °F - 34.0 °F 61% 30.17 in 10.0 mi Calm Calm - N/A   Clear
9:54 AM 52.0 °F - 35.1 °F 53% 30.17 in 10.0 mi ENE 3.5 mph - N/A   Clear
10:54 AM 55.9 °F - 35.1 °F 45% 30.19 in 10.0 mi North 3.5 mph - N/A   Clear
11:54 AM 59.0 °F - 36.0 °F 42% 30.19 in 10.0 mi North 5.8 mph - N/A   Clear
12:54 PM 60.1 °F - 33.1 °F 36% 30.16 in 10.0 mi Calm Calm - N/A   Clear
1:54 PM 64.0 °F - 28.0 °F 26% 30.14 in 10.0 mi Calm Calm - N/A   Scattered Clouds
2:54 PM 64.9 °F - 30.0 °F 27% 30.11 in 10.0 mi NE 5.8 mph - N/A   Scattered Clouds
3:54 PM 64.9 °F - 28.9 °F 26% 30.08 in 10.0 mi ENE 5.8 mph - N/A   Scattered Clouds
4:54 PM 66.0 °F - 28.9 °F 25% 30.07 in 10.0 mi Calm Calm - N/A   Scattered Clouds
5:54 PM 64.9 °F - 30.0 °F 27% 30.06 in 10.0 mi ENE 3.5 mph - N/A   Clear
6:54 PM 60.1 °F - 34.0 °F 38% 30.06 in 10.0 mi ENE 6.9 mph - N/A   Mostly Cloudy
7:54 PM 55.0 °F - 36.0 °F 49% 30.06 in 10.0 mi Calm Calm - N/A   Mostly Cloudy
8:54 PM 57.0 °F - 30.9 °F 37% 30.06 in 10.0 mi ESE 3.5 mph - N/A   Clear
9:54 PM 57.9 °F - 32.0 °F 37% 30.06 in 10.0 mi ESE 6.9 mph - N/A   Clear
10:54 PM 57.0 °F - 33.1 °F 40% 30.04 in 10.0 mi SE 9.2 mph - N/A   Clear
11:54 PM 57.0 °F - 34.0 °F 42% 30.03 in 10.0 mi ESE 8.1 mph - N/A   Clear